Big Rapids, MI

10:01 AM EDT on September 23, 2019 (GMT -0400)
Roben-Hood

Weather History for KRQB - July, 2019

Change the Weather History Date:

Friday, July 12, 2019

  Actual Average Record
Temperature  
Mean Temperature 66 °F -  
Max Temperature 80 °F 81 °F 92 °F (1987)
Min Temperature 51 °F 56 °F 43 °F (1978)
Growing Degree Days 16 (Base 50)    
Moisture  
Dew Point 54 °F    
Average Humidity 68    
Maximum Humidity 95    
Minimum Humidity 35    
Precipitation  
Precipitation 0.00 in - - ()
Sea Level Pressure  
Sea Level Pressure 29.95 in    
Wind  
Wind Speed 3 mph (West)    
Max Wind Speed 12 mph    
Max Gust Speed 16 mph    
Visibility 10 miles    
Events      
Averages and records for this station are not official NWS values.
T = Trace of Precipitation, MM = Missing Value Source: NWS Daily Summary

Daily Weather History Graph

Daily Weather History Graph

Search for Another Location

Airport or City:

Astronomy

Jul. 12, 2019 Rise Set
Actual Time 6:11 AM EDT 9:23 PM EDT
Civil Twilight 5:36 AM EDT 9:58 PM EDT
Nautical Twilight 4:51 AM EDT 10:43 PM EDT
Astronomical Twilight 3:55 AM EDT 11:38 PM EDT
Moon 5:39 PM EDT (7/12) 2:58 AM EDT (7/12)
Length of Visible Light 16h 22m
Length of Day
15h 12m
Waxing Gibbous, 82% of the Moon is Illuminated
Jul 12
Waxing Gibbous
Jul 16
Full
Jul 24
Last Quarter
Jul 31
New
Aug 7
First Quarter

Hourly Weather History & Observations

Time (EDT) Temp. Heat Index Dew Point Humidity Pressure Visibility Wind Dir Wind Speed Gust Speed Precip Events Conditions
12:15 AM 57.7 °F - 50.9 °F 78% 29.95 in 10.0 mi NW 3.5 mph - N/A   Clear
12:39 AM 57.2 °F - 50.4 °F 78% 29.94 in 10.0 mi Calm Calm - N/A   Clear
12:57 AM 56.8 °F - 50.4 °F 79% 29.94 in 10.0 mi Calm Calm - N/A   Clear
1:15 AM 56.3 °F - 50.4 °F 80% 29.94 in 10.0 mi Calm Calm - N/A   Clear
1:16 AM 56.3 °F - 50.4 °F 80% 29.94 in 10.0 mi Calm Calm - N/A   Clear
1:35 AM 55.4 °F - 50.2 °F 83% 29.94 in 10.0 mi Calm Calm - N/A   Clear
1:55 AM 55.0 °F - 50.2 °F 84% 29.95 in 10.0 mi Calm Calm - N/A   Clear
1:59 AM 54.3 °F - 49.8 °F 85% 29.95 in 10.0 mi Calm Calm - N/A   Clear
2:16 AM 53.6 °F - 50.0 °F 88% 29.95 in 10.0 mi Calm Calm - N/A   Clear
2:36 AM 54.1 °F - 50.5 °F 88% 29.94 in 10.0 mi Calm Calm - N/A   Clear
2:55 AM 52.2 °F - 49.3 °F 90% 29.94 in 10.0 mi Calm Calm - N/A   Clear
3:15 AM 51.4 °F - 49.3 °F 92% 29.94 in 10.0 mi Calm Calm - N/A   Clear
3:20 AM 51.4 °F - 49.5 °F 93% 29.94 in 10.0 mi Calm Calm - N/A   Clear
3:38 AM 51.8 °F - 49.8 °F 93% 29.94 in 10.0 mi Calm Calm - N/A   Clear
3:56 AM 51.4 °F - 49.6 °F 94% 29.95 in 10.0 mi Calm Calm - N/A   Scattered Clouds
4:15 AM 53.2 °F - 51.4 °F 94% 29.95 in 10.0 mi Calm Calm - N/A   Mostly Cloudy
4:16 AM 53.4 °F - 51.6 °F 94% 29.95 in 10.0 mi Calm Calm - N/A   Mostly Cloudy
4:35 AM 54.7 °F - 52.9 °F 94% 29.95 in 10.0 mi Calm Calm - N/A   Overcast
4:59 AM 55.4 °F - 53.1 °F 92% 29.95 in 10.0 mi Calm Calm - N/A   Overcast
5:17 AM 54.5 °F - 52.0 °F 91% 29.95 in 10.0 mi Calm Calm - N/A   Scattered Clouds
5:35 AM 53.4 °F - 50.9 °F 91% 29.95 in 10.0 mi Calm Calm - N/A   Clear
5:36 AM 53.2 °F - 50.7 °F 91% 29.95 in 10.0 mi Calm Calm - N/A   Clear
5:55 AM 51.8 °F - 50.0 °F 94% 29.95 in 10.0 mi Calm Calm - N/A   Clear
6:19 AM 52.2 °F - 50.7 °F 95% 29.95 in 10.0 mi Calm Calm - N/A   Clear
6:37 AM 52.7 °F - 50.9 °F 94% 29.96 in 10.0 mi Calm Calm - N/A   Clear
6:55 AM 53.1 °F - 51.3 °F 94% 29.97 in 10.0 mi Calm Calm - N/A   Clear
6:56 AM 53.1 °F - 51.3 °F 94% 29.97 in 10.0 mi Calm Calm - N/A   Clear
7:15 AM 54.5 °F - 52.7 °F 94% 29.98 in 10.0 mi Calm Calm - N/A   Clear
7:35 AM 55.6 °F - 53.4 °F 92% 29.99 in 10.0 mi Calm Calm - N/A   Clear
7:39 AM 56.1 °F - 54.0 °F 92% 29.99 in 10.0 mi Calm Calm - N/A   Clear
7:56 AM 57.6 °F - 54.5 °F 90% 30.00 in 10.0 mi Calm Calm - N/A   Clear
8:15 AM 59.0 °F - 54.5 °F 85% 30.00 in 10.0 mi Calm Calm - N/A   Clear
8:35 AM 60.8 °F - 54.5 °F 80% 30.00 in 10.0 mi Calm Calm - N/A   Clear
8:36 AM 61.0 °F - 54.5 °F 79% 30.00 in 10.0 mi Calm Calm - N/A   Clear
8:59 AM 62.2 °F - 54.0 °F 74% 30.00 in 10.0 mi NW 5.8 mph - N/A   Clear
9:17 AM 63.0 °F - 53.8 °F 72% 30.00 in 10.0 mi NNW 5.8 mph - N/A   Clear
9:35 AM 63.9 °F - 54.3 °F 71% 30.01 in 10.0 mi NNW 5.8 mph - N/A   Clear
9:55 AM 64.6 °F - 54.5 °F 70% 30.00 in 10.0 mi NNW 4.6 mph - N/A   Clear
9:56 AM 64.8 °F - 54.7 °F 70% 30.00 in 10.0 mi NNW 3.5 mph - N/A   Clear
10:19 AM 66.2 °F - 54.5 °F 66% 30.00 in 10.0 mi NNW 4.6 mph - N/A   Clear
10:37 AM 66.9 °F - 54.9 °F 65% 29.99 in 10.0 mi North 4.6 mph - N/A   Clear
10:55 AM 67.8 °F - 55.2 °F 64% 29.99 in 10.0 mi NNE 4.6 mph - N/A   Clear
11:15 AM 68.4 °F - 55.2 °F 63% 29.99 in 10.0 mi North 4.6 mph - N/A   Clear
11:35 AM 69.8 °F - 55.9 °F 61% 29.98 in 10.0 mi NE 3.5 mph - N/A   Clear
11:40 AM 70.0 °F - 55.9 °F 61% 29.98 in 10.0 mi NNW 4.6 mph - N/A   Clear
11:58 AM 70.0 °F - 55.8 °F 61% 29.97 in 10.0 mi SSW 3.5 mph - N/A   Clear
12:16 PM 71.4 °F - 56.5 °F 59% 29.97 in 10.0 mi NNE 4.6 mph - N/A   Clear
12:35 PM 72.3 °F - 56.7 °F 58% 29.97 in 10.0 mi NW 5.8 mph - N/A   Clear
12:36 PM 72.5 °F - 56.7 °F 57% 29.97 in 10.0 mi West 4.6 mph - N/A   Clear
12:55 PM 74.3 °F - 57.6 °F 56% 29.97 in 10.0 mi Calm Calm - N/A   Clear
1:18 PM 73.9 °F - 56.3 °F 54% 29.97 in 10.0 mi South 5.8 mph - N/A   Clear
1:36 PM 75.0 °F - 55.2 °F 50% 29.97 in 10.0 mi Calm Calm - N/A   Clear
1:55 PM 76.3 °F - 55.6 °F 49% 29.96 in 10.0 mi WNW 11.5 mph - N/A   Clear
1:56 PM 76.3 °F - 55.4 °F 48% 29.96 in 10.0 mi WNW 10.4 mph - N/A   Clear
2:15 PM 77.4 °F - 55.2 °F 46% 29.95 in 10.0 mi WNW 8.1 mph - N/A   Clear
2:37 PM 77.4 °F - 54.0 °F 44% 29.94 in 10.0 mi SSW 8.1 mph - N/A   Clear
2:55 PM 78.1 °F - 52.3 °F 41% 29.94 in 10.0 mi WSW 5.8 mph - N/A   Clear
3:15 PM 78.6 °F - 52.3 °F 40% 29.94 in 10.0 mi SW 4.6 mph - N/A   Clear
3:16 PM 78.6 °F - 52.3 °F 40% 29.94 in 10.0 mi WSW 5.8 mph - N/A   Clear
3:38 PM 79.7 °F - 52.9 °F 39% 29.93 in 10.0 mi WNW 11.5 mph 16.1 mph N/A   Clear
3:56 PM 80.1 °F - 51.1 °F 36% 29.94 in 10.0 mi West 5.8 mph - N/A   Clear
4:15 PM 80.2 °F - 51.8 °F 37% 29.93 in 10.0 mi WNW 8.1 mph - N/A   Clear
4:16 PM 80.2 °F - 51.3 °F 36% 29.93 in 10.0 mi West 8.1 mph - N/A   Clear
4:35 PM 80.6 °F - 50.5 °F 35% 29.93 in 10.0 mi West 6.9 mph - N/A   Clear
4:58 PM 80.2 °F - 51.4 °F 37% 29.92 in 10.0 mi SW 9.2 mph - N/A   Clear
5:16 PM 80.6 °F - 51.8 °F 37% 29.92 in 10.0 mi WSW 5.8 mph - N/A   Clear
5:35 PM 80.6 °F - 51.4 °F 36% 29.92 in 10.0 mi SW 8.1 mph - N/A   Clear
5:55 PM 80.6 °F - 52.9 °F 38% 29.92 in 10.0 mi SW 5.8 mph - N/A   Clear
6:00 PM 80.4 °F 80.1 °F 53.4 °F 39% 29.92 in 10.0 mi WSW 9.2 mph - N/A   Clear
6:18 PM 80.1 °F 80.4 °F 56.7 °F 45% 29.92 in 10.0 mi WSW 9.2 mph - N/A   Clear
6:35 PM 78.8 °F - 56.5 °F 46% 29.92 in 10.0 mi WSW 10.4 mph - N/A   Clear
6:55 PM 78.3 °F - 57.2 °F 48% 29.92 in 10.0 mi West 10.4 mph - N/A   Clear
7:15 PM 77.5 °F - 56.3 °F 48% 29.92 in 10.0 mi West 10.4 mph - N/A   Clear
7:16 PM 77.5 °F - 56.1 °F 47% 29.92 in 10.0 mi West 10.4 mph - N/A   Clear
7:39 PM 77.2 °F - 55.0 °F 46% 29.93 in 10.0 mi West 9.2 mph - N/A   Clear
7:57 PM 76.3 °F - 54.5 °F 47% 29.93 in 10.0 mi West 8.1 mph - N/A   Clear
8:15 PM 74.1 °F - 55.4 °F 52% 29.92 in 10.0 mi West 5.8 mph - N/A   Clear
8:35 PM 71.6 °F - 57.0 °F 60% 29.92 in 10.0 mi SW 3.5 mph - N/A   Clear
8:36 PM 71.6 °F - 56.8 °F 60% 29.92 in 10.0 mi SW 3.5 mph - N/A   Clear
8:55 PM 70.2 °F - 57.0 °F 63% 29.92 in 10.0 mi SSW 9.2 mph - N/A   Clear
9:18 PM 68.0 °F - 57.0 °F 68% 29.90 in 10.0 mi SSW 5.8 mph - N/A   Clear
9:36 PM 67.5 °F - 55.9 °F 66% 29.90 in 10.0 mi SSW 5.8 mph - N/A   Clear
9:55 PM 68.2 °F - 54.9 °F 62% 29.91 in 10.0 mi Calm Calm - N/A   Clear
9:56 PM 68.2 °F - 54.9 °F 62% 29.91 in 10.0 mi Calm Calm - N/A   Clear
10:15 PM 64.6 °F - 56.7 °F 75% 29.92 in 10.0 mi Calm Calm - N/A   Clear
10:20 PM 65.3 °F - 56.7 °F 74% 29.92 in 10.0 mi Calm Calm - N/A   Clear
10:37 PM 64.2 °F - 56.5 °F 76% 29.93 in 10.0 mi South 3.5 mph - N/A   Clear
10:55 PM 63.5 °F - 56.7 °F 78% 29.92 in 10.0 mi SE 5.8 mph - N/A   Clear
10:56 PM 63.3 °F - 56.7 °F 79% 29.92 in 10.0 mi SE 6.9 mph - N/A   Clear
11:15 PM 62.1 °F - 56.3 °F 81% 29.92 in 10.0 mi SSW 5.8 mph - N/A   Clear
11:16 PM 61.9 °F - 56.3 °F 82% 29.92 in 10.0 mi SSW 5.8 mph - N/A   Clear
11:39 PM 63.5 °F - 56.1 °F 77% 29.92 in 10.0 mi ESE 8.1 mph - N/A   Clear
11:57 PM 62.6 °F - 55.8 °F 78% 29.92 in 10.0 mi SSW 4.6 mph - N/A   Clear